Theta_e
290 287 287 290 290 294 292 290 288 289 296 295 294 294 295 297 297 297 299 299 299 298 300 300 301 300 301 301 300 301 301 303 302 303 306 305 303 303 303 304 306 308 309 309
287 285 291 294 294 293 292 289 288 294 296 295 292 291 293 296 297 298 298 299 298 298 299 300 300 300 299 299 300 300 299 301 301 299 301 303 302 301 301 302 302 303 305 305
284 287 294 293 292 291 290 291 289 291 294 295 293 289 292 296 297 299 299 299 300 299 298 299 298 296 297 297 298 299 299 299 299 298 298 298 298 298 298 299 299 300 302 302
287 291 291 292 291 293 287 292 295 294 292 286 294 283 289 293 294 297 297 297 298 298 298 298 296 295 295 295 297 298 299 299 299 298 297 295 295 294 296 297 297 298 300 300
286 289 289 290 291 293 291 294 296 295 292 292 290 284 286 294 292 294 296 297 298 298 297 296 296 296 295 296 295 296 298 298 298 297 296 295 294 294 295 296 296 297 298 299
290 292 292 292 295 295 296 295 295 294 291 284 290 285 283 290 293 295 297 298 298 298 297 297 297 297 295 295 294 295 297 297 297 297 296 295 293 293 294 294 295 296 297 297
286 289 290 295 291 294 296 292 282 281 281 281 290 286 288 295 297 297 296 296 297 298 297 296 295 295 294 294 294 295 295 296 296 296 296 295 295 294 294 294 294 295 295 296
283 281 289 294 292 291 293 292 284 278 279 281 291 284 287 297 300 300 299 297 296 296 296 295 294 294 294 294 295 295 295 295 296 295 295 295 295 294 294 294 294 294 295 295
283 284 291 293 294 294 291 287 293 286 286 283 285 286 293 297 298 297 295 295 294 294 295 294 294 294 294 293 294 294 294 294 294 295 294 294 294 293 293 293 293 294 294 296
290 282 289 292 294 293 290 294 287 286 279 278 281 283 284 292 293 294 293 293 294 294 294 295 295 295 295 294 294 294 293 293 293 293 294 293 293 293 292 293 292 293 294 294
290 286 284 290 288 287 288 287 289 289 285 280 279 283 293 294 294 293 293 294 294 294 294 295 295 295 294 293 292 292 292 292 292 292 293 292 292 292 291 292 292 292 293 293
291 287 281 284 290 293 291 290 290 284 283 284 282 282 297 297 296 296 294 295 295 295 295 295 295 293 292 292 291 291 291 291 291 292 292 291 291 291 290 291 291 292 292 292
290 284 278 281 285 289 288 290 292 290 288 284 280 281 294 297 296 296 295 295 295 295 294 294 293 292 292 291 291 291 291 291 291 291 291 290 290 290 289 290 291 291 290 290
295 285 284 280 282 286 284 287 290 289 282 282 283 285 291 293 294 294 295 295 294 294 294 293 292 291 291 292 291 291 291 291 291 291 290 290 289 290 290 290 290 289 290 289
290 283 284 287 288 288 287 287 289 289 288 284 286 287 291 293 294 294 295 294 294 293 293 293 292 291 291 291 291 291 291 291 291 291 290 290 290 290 290 289 289 289 289 289
288 283 285 284 287 288 285 287 287 289 288 286 288 287 295 296 296 294 294 294 293 293 293 293 292 291 291 291 290 291 291 291 291 290 290 291 291 290 289 288 288 288 287 287
285 283 282 280 284 283 278 284 287 288 290 290 285 288 294 293 294 294 294 294 294 294 293 292 292 291 291 290 291 290 290 291 291 291 291 291 290 289 288 288 287 286 286 286
284 283 282 279 280 270 285 291 290 289 291 291 289 291 295 295 296 296 296 295 294 294 293 292 291 290 291 290 289 290 291 290 290 290 290 290 289 288 287 286 286 285 285 285
288 283 278 275 277 282 285 287 286 286 287 289 289 292 295 295 291 289 297 297 295 294 294 292 291 291 290 289 290 291 289 290 290 289 289 289 288 287 286 285 285 285 285 285
288 286 282 275 274 272 283 290 290 290 283 291 293 293 293 292 287 291 294 296 295 294 293 291 291 290 289 288 290 289 288 288 288 288 289 288 288 287 285 285 284 285 285 285
281 280 279 275 274 279 287 289 292 281 283 291 293 294 293 292 294 293 294 294 295 293 292 291 290 289 289 289 290 288 287 287 289 289 288 287 287 286 285 284 284 284 284 283
281 279 278 278 273 275 290 288 286 288 287 292 294 295 294 295 292 293 294 293 293 292 290 290 289 288 288 290 289 287 286 288 289 289 287 286 285 286 286 283 283 283 282 282
281 284 282 284 283 288 289 289 290 289 290 289 293 296 296 291 292 293 293 292 292 291 290 290 288 287 288 289 289 287 287 288 288 287 285 285 285 284 283 282 282 281 281 280
285 288 283 284 287 289 289 291 291 291 290 290 294 295 295 292 293 293 293 292 291 290 288 288 288 287 286 287 288 288 288 288 287 285 284 284 283 283 282 282 282 281 280 280
285 287 284 284 287 289 291 291 293 292 292 292 294 295 295 293 293 293 292 292 291 289 288 288 288 287 287 287 288 288 287 287 285 285 284 283 283 282 281 281 281 282 282 282
285 285 285 285 290 289 290 292 293 292 292 293 293 293 294 295 293 294 292 292 289 287 288 287 287 287 287 287 287 287 287 287 285 283 283 282 282 281 281 280 280 284 284 285
Wind_Speed
3 4 11 14 8 7 13 8 7 2 8 10 9 14 10 7 6 9 9 11 12 12 7 8 9 9 11 12 14 16 15 15 8 5 2 5 8 9 9 9 14 14 13 14
1 11 3 6 3 8 8 10 4 7 4 11 9 7 4 9 7 11 12 10 12 9 7 9 9 9 9 8 11 12 13 15 10 7 5 4 3 6 7 8 10 13 13 14
6 4 9 6 6 6 5 16 8 11 6 10 15 4 6 5 3 6 5 9 10 11 10 8 9 7 7 8 8 9 8 10 9 9 5 3 4 4 8 9 8 9 11 11
7 8 7 6 13 14 11 11 14 18 14 10 4 7 6 9 10 9 10 8 10 9 7 7 8 7 7 6 6 6 7 9 9 8 11 13 9 8 5 4 5 6 8 9
8 6 7 12 22 12 16 14 20 18 10 14 6 6 5 13 13 14 12 11 10 9 9 8 8 7 6 6 7 6 7 8 8 9 9 8 8 3 2 3 6 6 6 6
8 3 5 7 3 8 8 11 11 6 5 6 14 6 6 19 23 19 15 14 13 11 8 8 6 6 6 5 6 6 7 7 7 7 7 8 7 6 6 6 6 6 4 5
2 3 2 3 4 3 15 20 5 3 6 8 14 7 9 22 20 26 24 18 15 13 12 11 9 7 7 7 5 5 7 6 6 7 7 7 7 7 6 6 5 7 6 6
6 4 7 4 5 10 22 16 11 10 10 6 10 13 6 19 24 21 21 19 16 13 11 11 9 8 7 7 6 6 6 5 5 6 6 5 6 4 3 4 3 4 4 4
5 5 1 3 1 6 7 7 10 9 2 5 6 3 6 13 19 18 20 19 17 14 11 11 8 8 7 7 7 7 7 6 6 5 5 6 6 6 5 6 5 4 5 7
2 2 2 1 1 0 6 8 6 2 8 7 4 4 6 19 20 20 21 20 16 13 11 9 8 8 6 7 6 6 6 7 5 6 5 4 5 6 6 6 7 6 6 7
5 4 4 4 6 6 3 3 2 5 5 7 4 10 12 23 25 26 23 21 19 16 14 12 10 7 8 7 6 6 6 7 6 6 5 6 6 6 6 5 6 6 6 7
6 5 5 6 3 4 3 6 5 7 7 2 3 7 15 25 26 25 22 20 18 17 15 12 12 10 8 8 7 7 6 7 6 6 6 6 6 6 6 6 6 6 8 7
7 3 3 3 5 3 6 5 4 4 3 7 6 5 3 14 17 19 22 19 17 16 14 12 11 11 10 7 7 6 6 6 6 6 6 6 6 6 6 6 6 7 8 8
8 5 9 10 5 6 4 3 4 5 4 5 6 5 14 16 20 20 19 19 19 18 18 15 11 10 9 8 7 6 6 6 6 6 6 6 6 6 6 6 6 7 7 8
7 8 5 4 5 4 6 11 11 12 7 12 7 11 21 24 25 25 17 18 20 19 18 16 14 11 8 8 7 6 6 6 6 6 6 5 6 6 6 6 6 7 8 9
2 6 6 6 5 7 6 10 13 17 6 3 9 6 16 17 13 17 21 21 21 20 19 17 15 13 11 10 8 7 7 7 6 6 6 6 6 6 6 6 6 7 8 9
5 8 5 8 6 5 4 19 17 12 9 13 13 8 15 16 20 23 24 24 23 22 20 18 17 14 12 10 9 8 8 6 6 6 6 6 6 5 5 5 6 8 7 7
7 6 3 5 5 3 15 12 18 20 17 14 4 12 21 25 24 20 22 24 22 21 20 18 14 12 11 8 7 8 8 7 7 6 6 6 5 5 5 5 6 6 5 6
7 6 3 7 6 4 4 6 8 10 16 9 10 15 20 14 9 4 18 22 23 23 20 17 13 14 11 11 9 11 8 7 7 6 6 5 5 5 5 5 6 5 5 6
5 2 7 3 8 13 6 7 5 4 16 17 16 18 21 18 15 14 14 17 18 18 18 16 15 13 12 9 11 11 9 7 7 6 6 5 5 5 5 4 5 4 4 5
5 2 11 3 5 10 6 3 12 11 11 12 17 22 25 23 11 12 16 16 19 20 19 16 16 15 13 11 12 11 8 7 7 7 6 5 5 4 4 3 3 4 5 5
11 10 6 3 2 14 8 7 21 9 1 13 18 23 24 16 15 22 21 21 21 21 18 17 15 12 10 11 12 11 8 7 7 8 6 5 5 3 3 4 4 4 5 5
8 10 11 14 11 5 5 8 9 5 7 6 16 19 23 15 14 24 21 22 20 22 18 15 15 13 10 10 12 11 8 7 7 7 6 5 5 4 3 3 4 3 4 4
5 4 6 6 8 12 7 7 4 4 5 6 15 17 21 20 22 20 21 20 19 17 17 14 16 14 11 9 9 11 9 7 7 7 6 5 4 3 3 3 2 3 3 3
8 8 8 5 3 2 13 8 8 6 6 7 11 16 22 23 21 23 20 20 18 18 15 16 15 14 13 10 10 9 9 8 7 6 5 5 3 2 2 3 1 2 3 3
18 17 13 15 12 8 9 11 7 9 9 14 16 13 16 26 25 21 20 19 18 18 16 14 14 14 12 12 11 9 8 8 8 6 4 3 3 1 2 2 3 6 6 8
Wind_Direction
205 144 210 207 152 222 138 132 126 112 128 89 125 134 137 136 118 119 120 116 105 94 90 72 61 50 50 44 44 41 41 33 13 40 30 56 48 50 41 35 30 34 26 22
28 228 204 150 181 146 126 126 106 42 75 89 133 114 119 161 169 153 143 129 120 114 95 83 75 68 53 48 47 46 44 43 31 37 28 28 21 46 39 31 29 26 27 24
180 230 169 185 190 167 142 164 171 150 102 95 117 56 154 176 153 156 147 135 127 129 123 109 90 82 77 62 55 57 55 53 49 50 52 54 52 52 36 29 26 20 24 24
232 240 201 187 194 189 197 162 154 146 131 159 219 189 203 169 171 177 158 146 141 132 125 120 109 89 89 82 75 75 63 59 54 49 58 58 59 53 20 5 11 16 19 21
238 198 187 202 201 184 211 153 162 160 148 132 198 107 228 172 184 180 176 168 156 154 145 130 117 110 98 87 72 67 64 60 53 54 60 62 61 53 10 6 21 18 13 12
237 241 178 193 189 185 141 116 131 129 78 214 194 154 214 188 186 174 176 174 165 160 150 135 125 122 107 92 76 66 72 56 56 59 58 66 64 46 38 24 24 15 9 6
220 222 230 160 149 143 154 138 128 160 210 214 156 210 234 197 177 173 170 169 171 166 158 151 146 140 131 125 115 95 80 65 60 63 54 51 50 42 35 18 7 5 3 4
169 239 178 180 213 187 167 172 168 170 199 170 169 219 224 190 174 169 162 162 163 166 163 157 153 147 137 133 129 107 93 86 73 64 57 49 46 43 33 20 354 352 355 330
166 248 281 191 184 164 210 209 152 104 358 122 200 333 308 151 153 157 159 161 168 168 165 158 153 150 144 141 145 132 108 88 77 79 66 47 38 39 28 16 12 359 350 355
248 200 219 320 161 305 198 155 146 340 150 192 240 224 196 159 163 164 168 168 169 170 160 154 152 155 155 143 134 125 104 94 89 74 73 64 49 38 27 18 11 0 346 346
168 129 295 128 212 191 147 192 109 123 141 163 163 240 168 175 174 174 172 169 168 166 166 161 162 156 145 138 142 138 118 110 98 86 93 64 39 31 23 16 358 357 344 353
178 140 185 190 293 264 179 190 166 172 201 141 167 258 184 179 181 170 168 166 165 163 163 160 159 148 147 149 148 148 142 114 111 108 84 67 47 33 22 9 4 359 2 0
183 191 98 27 336 310 227 174 147 113 74 191 153 258 161 170 172 174 162 163 162 157 154 153 150 157 156 157 158 149 130 112 110 97 85 60 42 34 23 18 12 9 1 357
126 143 174 199 210 151 231 228 158 137 158 157 217 163 164 170 174 173 170 162 161 161 160 160 155 160 162 160 149 142 124 120 116 101 84 68 48 40 32 20 16 6 356 358
142 189 174 204 167 188 190 196 199 212 206 201 183 179 183 179 180 179 160 156 159 162 163 162 161 166 160 145 140 135 125 127 124 103 87 75 58 51 36 19 10 0 359 356
257 199 154 199 194 196 205 216 212 216 195 228 174 226 187 182 148 160 171 164 164 167 167 163 162 163 156 151 152 144 138 133 120 105 90 74 61 55 28 10 3 3 357 355
197 139 138 213 168 128 318 220 215 216 205 188 194 197 160 171 176 177 173 170 168 170 165 163 167 164 157 157 154 146 144 136 114 103 88 73 73 51 27 1 2 357 350 339
206 149 123 160 111 156 245 178 209 211 218 211 141 169 177 177 187 175 172 166 169 165 163 163 161 152 151 151 140 136 136 124 114 101 90 82 75 53 22 5 357 344 339 332
198 134 139 143 202 276 258 205 173 175 240 195 173 172 176 164 114 160 178 171 167 166 163 159 153 147 149 151 146 133 124 120 114 109 105 99 81 63 24 9 349 334 338 336
117 138 165 140 171 219 228 187 184 110 253 202 186 166 157 147 176 192 175 161 156 151 151 147 147 144 147 151 142 130 132 127 125 126 122 105 97 77 39 8 346 323 330 331
150 100 198 152 222 273 228 179 139 167 246 173 169 167 167 179 192 143 140 148 150 149 148 142 147 154 155 150 138 130 135 138 142 126 119 98 86 88 52 14 351 343 337 327
170 159 187 101 201 261 187 126 184 210 172 181 175 174 176 172 133 147 150 147 150 148 142 148 149 152 152 145 134 137 143 150 130 131 121 114 99 76 55 37 0 347 352 347
190 186 186 184 212 239 198 194 231 188 172 185 178 176 170 144 150 151 150 151 153 150 150 151 149 146 149 147 143 142 155 142 135 134 132 124 103 80 55 41 12 357 358 352
257 172 183 116 211 224 215 229 242 190 222 195 175 173 162 150 150 151 147 149 147 148 150 149 146 149 150 148 144 143 149 143 136 139 137 129 109 89 44 30 19 6 359 358
282 169 191 263 271 303 244 210 183 191 178 137 159 164 166 145 154 150 152 151 150 149 150 152 152 152 152 144 140 144 145 141 132 135 141 131 122 110 47 19 356 8 351 11
255 259 190 220 190 178 225 206 184 167 172 156 146 151 165 151 153 153 153 151 150 149 151 151 151 146 147 145 146 146 147 139 135 138 139 145 142 129 79 55 1 358 14 22